DW4273 Weather Reports


Display with metric or nautical units.
time (UTC)temp
F
wind
direction
speed
MPH
gust
MPH
rain 1hr
in
rain 24hr
in
rain mn
in
humidity
%
barometer
mb
20260906072517 56 0.0 0.0 0.00 0.01 0.00 92 1013.5
20260906071517 57 0.0 0.0 0.00 0.01 0.00 92 1013.4
20260906070517 57 0.0 0.0 0.00 0.01 0.00 92 1013.5
20260906065517 57 0.0 0.0 0.00 0.01 0.00 92 1013.4
20260906064517 57 0.0 0.0 0.00 0.01 0.00 92 1013.3
20260906063517 57 0.0 0.0 0.00 0.01 0.00 92 1013.3
20260906062537 57 0.0 0.0 0.00 0.01 0.00 92 1013.5
20260906061517 57 0.0 0.0 0.00 0.01 0.00 91 1013.5
20260906060517 58 0.0 0.0 0.00 0.01 0.00 91 1013.4
20260906055537 58 0.0 0.0 0.00 0.01 0.00 91 1013.4
20260906054517 58 0.0 0.0 0.00 0.01 0.00 91 1013.3
20260906053517 58 0.0 0.0 0.00 0.01 0.00 91 1013.4
20260906052517 58 0.0 0.0 0.00 0.01 0.00 91 1013.3
20260906051517 58 0.0 0.0 0.00 0.02 0.00 91 1013.3
20260906050517 58 0.0 0.0 0.00 0.03 0.00 90 1013.4
20260906045517 59 0.0 0.0 0.00 0.03 0.00 90 1013.4
20260906044517 59 0.0 0.0 0.00 0.04 0.00 90 1013.5
20260906043517 59 0.0 0.0 0.00 0.05 0.00 90 1013.4
20260906042517 59 0.0 0.0 0.00 0.05 0.00 90 1013.5
20260906041517 59 0.0 0.0 0.00 0.05 0.00 89 1013.3
20260906040557 60 0.0 0.0 0.00 0.05 0.00 89 1013.3
20260906035517 60 0.0 0.0 0.00 0.05 0.05 88 1013.3
20260906034517 60 0.0 0.0 0.00 0.05 0.05 88 1013.1
20260906033516 60 0.0 0.0 0.00 0.05 0.05 88 1013.2
20260906032516 61 0.0 0.0 0.00 0.05 0.05 88 1013.2
20260906031516 61 0.0 0.0 0.00 0.05 0.05 87 1013.2
20260906030516 61 0.0 0.0 0.00 0.05 0.05 86 1013.1
20260906025516 61 0.0 0.0 0.00 0.05 0.05 86 1013.2
20260906024536 62 0.0 0.0 0.00 0.05 0.05 85 1013.2
20260906023516 62 0.0 0.0 0.00 0.05 0.05 83 1013.0
20260906022557 63 0.0 0.0 0.00 0.05 0.05 83 1013.0
20260906021536 63 0.0 0.0 0.00 0.05 0.05 82 1012.9
20260906020517 64 0.0 1.0 0.00 0.05 0.05 82 1012.9
20260906015516 64 0.0 0.0 0.00 0.05 0.05 80 1012.7
20260906014516 65 0.0 1.0 0.00 0.05 0.05 80 1012.8
20260906013517 66 0.0 0.0 0.00 0.05 0.05 78 1012.8
20260906012516 66 0.0 1.0 0.00 0.05 0.05 78 1012.8
20260906011516 67 23 1.0 3.0 0.00 0.05 0.05 78 1012.6
20260906010537 67 45 2.0 3.0 0.00 0.05 0.05 77 1012.5
20260906005557 68 23 1.0 3.0 0.00 0.05 0.05 76 1012.7
20260906004516 68 45 2.0 4.0 0.00 0.05 0.05 76 1012.6
20260906003517 68 23 2.0 3.0 0.00 0.05 0.05 76 1012.6
20260906002516 69 23 2.0 4.0 0.00 0.05 0.05 75 1012.6
20260906001517 69 23 3.0 5.0 0.00 0.05 0.05 75 1012.4
20260906000517 69 23 4.0 6.0 0.00 0.05 0.05 75 1012.2
20260905235517 69 0 4.0 7.0 0.00 0.05 0.05 75 1012.1
20260905234517 70 23 4.0 7.0 0.00 0.05 0.05 75 1012.1
20260905233517 70 23 4.0 8.0 0.00 0.05 0.05 74 1012.1
20260905232517 71 23 5.0 9.0 0.00 0.05 0.05 74 1012.2
20260905231516 71 0 5.0 7.0 0.00 0.05 0.05 74 1012.1
20260905230517 71 23 5.0 7.0 0.00 0.05 0.05 74 1011.9
20260905230048 72 23 5.0 9.0 0.00 0.05 0.05 74 1011.8
20260905225516 72 23 5.0 9.0 0.00 0.05 0.05 74 1011.8
20260905224516 72 23 6.0 11.0 0.00 0.05 0.05 74 1011.6
20260905223516 72 23 5.0 9.0 0.00 0.05 0.05 78 1011.7
20260905222516 73 23 5.0 8.0 0.00 0.05 0.05 78 1011.7
20260905221517 73 0 5.0 9.0 0.00 0.05 0.05 78 1011.6
20260905220517 73 0 7.0 10.0 0.00 0.05 0.05 77 1011.4
20260905215557 74 23 6.0 11.0 0.00 0.05 0.05 78 1011.2
20260905214517 73 45 5.0 10.0 0.00 0.05 0.05 79 1011.2
20260905213517 74 23 6.0 9.0 0.00 0.05 0.05 78 1011.2
20260905212537 75 0 6.0 10.0 0.00 0.05 0.05 79 1011.1
20260905211517 75 0 4.0 9.0 0.00 0.05 0.05 82 1011.1
20260905210516 75 0 4.0 6.0 0.00 0.05 0.05 83 1011.1
20260905205517 75 23 4.0 7.0 0.00 0.05 0.05 83 1011.1
20260905204516 75 23 4.0 5.0 0.00 0.05 0.05 84 1011.2
20260905203517 75 45 2.0 4.0 0.00 0.05 0.05 85 1011.3
20260905202517 75 23 5.0 8.0 0.00 0.05 0.05 83 1011.4
20260905201517 76 23 6.0 10.0 0.00 0.05 0.05 80 1011.4
20260905200518 77 338 4.0 7.0 0.00 0.05 0.05 81 1011.4
20260905195517 77 45 5.0 8.0 0.00 0.05 0.05 80 1011.4
20260905194517 76 45 5.0 7.0 0.00 0.05 0.05 81 1011.4
20260905193517 76 0 4.0 7.0 0.00 0.05 0.05 81 1011.6
20260905192517 77 45 4.0 7.0 0.00 0.05 0.05 80 1011.5
20260905191517 77 45 4.0 8.0 0.00 0.05 0.05 82 1011.6
20260905190537 77 45 5.0 8.0 0.00 0.05 0.05 80 1011.7
20260905185557 77 45 7.0 12.0 0.00 0.05 0.05 78 1011.6
20260905184517 76 45 4.0 9.0 0.00 0.05 0.05 81 1011.7
20260905183517 76 68 7.0 11.0 0.00 0.05 0.05 81 1011.8
20260905182517 75 68 6.0 10.0 0.00 0.05 0.05 83 1011.9
20260905181517 75 68 6.0 9.0 0.00 0.05 0.05 84 1011.8
20260905180517 74 45 6.0 10.0 0.00 0.05 0.05 86 1012.0
20260905175517 74 45 5.0 8.0 0.00 0.05 0.05 86 1012.1
20260905174517 75 23 7.0 12.0 0.00 0.05 0.05 84 1012.0
20260905173517 76 45 3.0 5.0 0.00 0.05 0.05 84 1012.1
20260905172517 76 45 5.0 8.0 0.00 0.05 0.05 84 1011.9
20260905171517 76 0 5.0 9.0 0.00 0.05 0.05 83 1011.9
20260905170517 76 90 4.0 6.0 0.00 0.05 0.05 86 1011.8
20260905165537 75 68 4.0 7.0 0.00 0.05 0.05 86 1011.9
20260905164517 75 45 1.0 4.0 0.00 0.05 0.05 88 1011.9
20260905163617 75 45 2.0 4.0 0.00 0.05 0.05 89 1012.0
20260905162517 75 0.0 3.0 0.00 0.05 0.05 91 1012.0
20260905161517 74 203 1.0 3.0 0.00 0.05 0.05 91 1012.1
20260905160517 74 90 2.0 5.0 0.00 0.05 0.05 92 1012.2
20260905155517 74 0.0 1.0 0.00 0.05 0.05 93 1012.3
20260905154537 73 315 2.0 4.0 0.00 0.05 0.05 93 1012.4
20260905153537 73 248 1.0 3.0 0.00 0.05 0.05 94 1012.4
20260905152517 73 0.0 0.0 0.00 0.05 0.05 94 1012.3
20260905151517 73 0.0 0.0 0.00 0.05 0.05 94 1012.3
20260905150517 72 0.0 0.0 0.00 0.05 0.05 94 1012.2
20260905145557 72 0.0 0.0 0.00 0.05 0.05 95 1012.2
20260905144537 71 0.0 0.0 0.00 0.05 0.05 94 1012.1
20260905143517 71 0.0 0.0 0.00 0.09 0.05 94 1012.0
20260905142517 71 0.0 0.0 0.00 0.11 0.05 95 1011.8
20260905141517 71 0.0 0.0 0.00 0.11 0.05 95 1011.8
20260905140517 71 0.0 0.0 0.00 0.15 0.05 95 1011.7
20260905135537 70 0.0 0.0 0.00 0.25 0.05 95 1011.8
20260905134537 70 0.0 0.0 0.00 0.30 0.05 95 1012.0
20260905133517 70 0.0 0.0 0.00 0.30 0.05 95 1012.2
20260905132517 70 0.0 0.0 0.00 0.32 0.05 95 1012.2
20260905131537 70 0.0 0.0 0.00 0.34 0.05 95 1012.3
20260905130517 70 0.0 0.0 0.00 0.34 0.05 95 1012.5
20260905125517 70 0.0 0.0 0.00 0.35 0.05 95 1012.4
20260905124517 70 0.0 0.0 0.00 0.35 0.05 95 1012.4
20260905123517 70 0.0 0.0 0.00 0.36 0.05 95 1012.3
20260905122538 69 0.0 0.0 0.00 0.36 0.05 95 1012.2
20260905121517 69 0.0 0.0 0.00 0.36 0.05 95 1012.2
20260905120517 69 0.0 0.0 0.00 0.36 0.05 95 1011.9
20260905115517 69 0.0 0.0 0.00 0.36 0.05 95 1011.8
20260905114517 69 0.0 0.0 0.01 0.36 0.05 95 1011.6
20260905113517 69 0.0 0.0 0.01 0.36 0.05 95 1011.6
20260905112537 69 0.0 0.0 0.01 0.36 0.05 95 1011.5
20260905111517 69 0.0 0.0 0.01 0.36 0.05 95 1011.5
20260905110517 69 0.0 0.0 0.01 0.36 0.05 95 1011.6
20260905105517 70 0.0 1.0 0.01 0.36 0.05 95 1011.7
20260905104537 70 0.0 0.0 0.00 0.36 0.04 95 1012.0
20260905103538 70 0.0 0.0 0.00 0.36 0.04 95 1012.0
20260905102517 70 248 1.0 4.0 0.00 0.36 0.04 95 1012.4
20260905101517 70 248 3.0 7.0 0.00 0.36 0.04 95 1012.5
20260905100517 70 248 7.0 12.0 0.00 0.36 0.04 95 1012.9
20260905095517 70 248 3.0 6.0 0.00 0.36 0.04 95 1012.9
20260905094517 69 0.0 4.0 0.00 0.36 0.04 95 1012.8
20260905093517 69 0.0 2.0 0.00 0.36 0.04 95 1012.9
20260905092517 69 0.0 0.0 0.00 0.36 0.04 95 1012.7
20260905091517 68 0.0 0.0 0.00 0.36 0.04 94 1012.2
20260905090518 68 0.0 0.0 0.00 0.36 0.04 95 1011.8
20260905085517 69 0.0 0.0 0.00 0.36 0.04 94 1011.3
20260905084557 69 0.0 0.0 0.00 0.36 0.04 94 1011.1
20260905084017 69 0.0 0.0 0.00 0.36 0.04 94 1011.2
20260905083017 69 0.0 0.0 0.00 0.36 0.04 95 1011.5
20260905082017 69 0.0 0.0 0.00 0.36 0.04 94 1011.1
20260905081017 69 0.0 0.0 0.00 0.36 0.04 94 1010.8
20260905080017 69 0.0 0.0 0.00 0.36 0.04 94 1010.9
20260905075017 69 0.0 0.0 0.00 0.36 0.04 95 1011.3
20260905074017 68 0.0 0.0 0.00 0.36 0.04 95 1011.1